Location: B?ezina
(50.5492°N, 15.0304°E)
Time: 23:55:41
(UTC+00:00)

Daily predictions for brighter satellites

Satellite Brightness Start Highest point End
(mag) Time Altitude Azimuth Time Altitude Azimuth Time Altitude Azimuth
NOSS 3-4 (A) 4.3 19:43:19 10° SSE 19:48:08 26° ESE 19:53:11 10° ENE
NOSS 3-4 (C) 4.3 19:43:26 10° SSE 19:48:15 26° ESE 19:53:17 10° ENE
CZ-2C R/B 3.4 19:43:50 10° N 19:49:25 64° WNW 19:54:56 10° SSW
STARLINK-1154 3.9 19:45:45 10° WNW 19:49:55 72° NNE 19:54:03 10° E
Cosmos 1302 Rocket 4.3 19:45:03 10° S 19:50:08 50° ESE 19:55:15 10° NNE
STARLINK-1243 4.2 19:47:54 10° W 19:52:01 61° N 19:56:08 10° ENE
STARLINK-60 3.1 19:49:33 10° SW 19:52:38 50° SSE 19:55:44 10° ENE
STARLINK-1235 3.4 19:49:41 10° WNW 19:53:05 55° SSW 19:56:29 10° SE
STARLINK-1197 3.8 19:50:45 10° WNW 19:54:55 74° NNE 19:59:03 10° E
Cosmos 1486 Rocket 4.2 19:50:36 10° NNW 19:55:54 67° ENE 20:01:07 10° SE
SPOT 1/Viking Rocket 3.7 19:50:48 10° SSE 19:55:54 67° ENE 20:01:02 10° N
SL-27 R/B 2.5 19:52:32 10° NNW 19:56:07 81° ENE 19:59:37 10° SSE
Cosmos 1092 Rocket 4.2 19:51:00 10° SSE 19:56:56 54° E 20:02:56 10° NNE
STARLINK-1236 4.2 19:52:52 10° W 19:56:59 60° N 20:01:06 10° E
Cosmos 1842 4.1 19:54:16 10° SSE 19:57:46 33° E 20:01:17 10° NNE
Cosmos 1975 Rocket 3.6 19:55:06 10° SSE 19:59:15 42° E 20:03:24 10° NNE
COSMOS 2487 4.3 19:56:41 10° N 19:59:20 20° NE 20:01:57 10° ESE
STARLINK-1198 3.8 19:55:44 10° WNW 19:59:54 76° NNE 20:04:03 10° ESE
Cosmos 2297 Rocket 4.5 19:57:50 10° N 20:01:10 16° NNE 20:04:29 10° ENE
Cosmos 292 Rocket 4.3 19:57:36 10° S 20:02:05 39° ESE 20:06:37 10° NE
STARLINK-1212 3.2 19:59:24 10° WNW 20:02:29 51° SSW 20:05:33 10° SE
Cosmos 1943 Rocket 2.2 19:57:34 10° SSW 20:03:05 71° ESE 20:08:42 10° NNE
STARLINK-1105 3.3 20:00:03 10° WNW 20:03:08 51° SSW 20:06:14 10° SE
STARLINK-1247 3.3 20:01:07 10° WNW 20:04:15 50° SSW 20:07:21 10° SE
STARLINK-1227 3.3 20:01:44 10° WNW 20:04:51 50° SSW 20:07:54 10° SE
STARLINK-1199 3.7 20:00:43 10° WNW 20:04:52 79° NNE 20:09:02 10° ESE
STARLINK-1226 3.3 20:02:54 10° WNW 20:05:59 49° SSW 20:09:00 10° SE
STARLINK-1269 4.2 20:02:52 10° W 20:06:59 60° N 20:11:06 10° E
STARLINK-1215 3.4 20:03:57 10° WNW 20:07:03 48° SSW 20:10:03 11° SE
Cosmos 1953 4.2 20:05:33 10° NNE 20:08:20 18° ENE 20:11:05 10° ESE
STARLINK-1217 3.4 20:06:13 10° WNW 20:09:19 47° SSW 20:12:14 11° SE
NOSS 2-2 (C) 3.8 20:05:53 10° SW 20:09:28 64° NW 20:13:40 10° NE
STARLINK-1210 3.7 20:05:42 10° WNW 20:09:51 82° NNE 20:14:01 10° ESE
STARLINK-1229 3.4 20:07:19 10° WNW 20:10:24 46° SSW 20:13:17 11° SE
Lacrosse 4 Rocket 4.5 20:09:54 10° N 20:10:32 10° NNE 20:11:10 10° NNE
Cosmos 1271 Rocket 4.1 20:07:51 10° SE 20:11:02 24° E 20:14:16 10° NE
Cosmos 1833 4.4 20:05:44 10° NNW 20:11:23 68° ENE 20:16:55 10° SE
STARLINK-1270 3.5 20:08:25 10° WNW 20:11:30 45° SSW 20:14:20 12° SE
STARLINK-1200 4.2 20:07:51 10° W 20:11:58 60° N 20:16:05 10° E
CZ-4B DEB 4.4 20:09:36 10° SSE 20:12:55 76° ENE 20:16:16 10° N
STARLINK-1189 3.5 20:10:48 10° WNW 20:13:53 44° SSW 20:16:39 12° SE
STARLINK-1219 3.7 20:10:43 10° WNW 20:14:53 85° NNE 20:19:02 10° ESE
STARLINK-1188 3.5 20:12:01 10° WNW 20:15:05 43° SSW 20:17:49 12° SE
ATLAS 2AS CENTAUR R/B 3.3 20:08:18 10° S 20:15:51 48° ESE 20:23:22 10° NE
SL-4 R/B 2.4 20:11:35 10° SW 20:16:14 60° SSE 20:21:01 10° ENE
STARLINK-1192 4.2 20:12:52 10° W 20:16:59 60° N 20:21:06 10° E
STARLINK-1191 3.6 20:14:37 10° WNW 20:17:40 41° SSW 20:20:17 13° SE
STARLINK-1221 3.6 20:15:52 10° WNW 20:18:54 40° SSW 20:21:29 13° SE
STARLINK-1211 3.6 20:15:41 10° WNW 20:19:51 88° NNE 20:24:01 10° ESE
STARLINK-1222 3.7 20:17:03 10° WNW 20:20:05 39° SSW 20:22:37 13° SE
STARLINK-1214 3.7 20:18:18 10° WNW 20:21:20 39° SSW 20:23:52 14° SE
Landsat 7 4.2 20:16:39 10° S 20:21:23 66° WSW 20:26:09 10° NNW
STARLINK-1244 4.2 20:17:50 10° WNW 20:21:57 61° N 20:26:04 10° E
Cosmos 1242 Rocket 3.1 20:18:33 10° SSE 20:22:02 42° E 20:25:32 10° NNE
Cosmos 1656 Rocket 4.2 20:17:21 10° S 20:22:33 40° ESE 20:27:41 10° NE
Cosmos 1707 4.1 20:20:12 12° SE 20:22:59 24° E 20:26:08 10° NE
ERS-1 Rocket 3.0 20:19:14 10° SSE 20:24:16 84° ENE 20:29:21 10° NNW
STARLINK-1245 3.6 20:20:39 10° WNW 20:24:48 89° SSW 20:28:58 10° ESE
STARLINK-29 3.1 20:22:09 10° SW 20:25:16 49° SSE 20:28:24 10° ENE
Cosmos 1455 Rocket 3.0 20:20:57 10° N 20:25:19 79° E 20:29:27 11° SSE
STARLINK-1138 4.1 20:22:49 10° WNW 20:26:56 61° N 20:31:03 10° E
Cosmos 1758 3.9 20:23:41 10° N 20:27:38 47° ENE 20:31:01 14° SSE
STARLINK-1233 3.6 20:25:38 10° WNW 20:29:48 85° SSW 20:33:57 10° ESE
STARLINK-1209 4.4 20:28:37 10° W 20:31:43 29° SW 20:34:08 14° SSE
STARLINK-1143 4.1 20:27:49 10° WNW 20:31:57 62° N 20:36:04 10° E
Cosmos 968 Rocket 3.5 20:28:09 10° NNW 20:33:19 81° WSW 20:37:57 13° SSE
IGS 5A 4.4 20:30:24 10° S 20:34:23 45° W 20:38:25 10° NNW
STARLINK-1204 3.6 20:30:36 10° WNW 20:34:46 82° SSW 20:38:47 11° ESE
Cosmos 2026 Rocket 4.1 20:28:38 10° S 20:34:56 76° E 20:41:19 10° NNE
Meteor 1-21 4.3 20:29:28 10° S 20:34:59 62° E 20:40:30 10° NNE
ATLAS CENTAUR R/B 1.8 20:31:35 10° SSW 20:35:43 42° ESE 20:39:38 10° NE
Okean 2 3.6 20:32:21 10° SSW 20:36:30 74° WNW 20:40:41 10° N
STARLINK-1241 4.1 20:32:50 10° WNW 20:36:57 63° N 20:41:05 10° E
CARTOSAT-1 3.7 20:34:06 11° S 20:38:12 77° WSW 20:42:32 10° NNW
Cosmos 2369 Rocket 2.2 20:32:47 10° SSW 20:38:28 89° WNW 20:44:09 10° NNE
Cosmos 2227 Rocket 4.2 20:35:17 10° NNW 20:39:30 21° NE 20:43:43 10° E
Cosmos 1867 3.7 20:34:07 10° NW 20:39:34 71° SW 20:44:11 14° SSE
STARLINK-1238 3.6 20:35:36 10° WNW 20:39:45 78° SSW 20:43:35 12° ESE
STARLINK-1320 3.9 20:38:28 10° SSW 20:41:03 24° SE 20:43:39 10° E
STARLINK-1322 3.9 20:38:49 10° SSW 20:41:24 24° SE 20:44:01 10° E
STARLINK-1324 3.9 20:39:07 10° SSW 20:41:43 24° SE 20:44:20 10° E
STARLINK-1187 4.4 20:39:02 10° W 20:41:55 27° SW 20:43:50 16° SSE
STARLINK-1239 4.1 20:37:49 10° WNW 20:41:57 64° N 20:46:05 10° E
STARLINK-1294 3.9 20:39:27 10° SSW 20:42:02 24° SE 20:44:38 10° E
STARLINK-1261 3.9 20:39:48 10° SSW 20:42:24 25° SE 20:45:02 10° E
Cosmos 1553 Rocket 4.1 20:36:29 10° N 20:42:45 70° ENE 20:48:07 14° SSE
STARLINK-1325 3.9 20:40:08 10° SSW 20:42:45 25° SE 20:45:23 10° E
STARLINK-1333 3.9 20:40:30 10° SSW 20:43:07 25° SE 20:45:45 10° E
STARLINK-1334 3.9 20:40:47 10° SSW 20:43:24 25° SE 20:46:03 10° E
STARLINK-1326 3.9 20:41:06 10° SSW 20:43:43 25° SE 20:46:22 10° E
STARLINK-1323 3.9 20:41:27 10° SSW 20:44:06 25° SE 20:46:45 10° E
STARLINK-1349 3.9 20:41:45 10° SSW 20:44:24 25° SE 20:47:03 10° E
STARLINK-1336 3.9 20:42:05 10° SSW 20:44:43 25° SE 20:47:23 10° E
STARLINK-1201 3.6 20:40:35 10° WNW 20:44:44 74° SSW 20:48:22 13° ESE
STARLINK-1331 3.9 20:42:27 10° SSW 20:45:06 26° SE 20:47:46 10° E
STARLINK-1344 3.8 20:42:45 10° SSW 20:45:24 26° SE 20:48:04 10° E
STARLINK-1343 3.8 20:43:07 10° SSW 20:45:47 26° SE 20:48:27 10° E
STARLINK-1346 3.8 20:43:24 10° SSW 20:46:04 26° SE 20:48:46 10° E
STARLINK-1328 3.8 20:43:49 10° SSW 20:46:30 26° SE 20:49:10 10° E
STARLINK-1354 3.8 20:44:07 10° SSW 20:46:47 26° SE 20:49:29 10° E
STARLINK-1240 4.0 20:42:46 10° WNW 20:46:55 65° N 20:51:03 10° E
STARLINK-1347 3.8 20:44:24 10° SSW 20:47:04 26° SE 20:49:46 10° E
STARLINK-1357 3.8 20:44:48 10° SSW 20:47:29 27° SE 20:50:11 10° E
STARLINK-1335 3.8 20:45:05 10° SSW 20:47:46 27° SE 20:50:29 10° E
STARLINK-1327 3.8 20:45:26 10° SSW 20:48:08 27° SE 20:50:50 10° E
STARLINK-1340 3.8 20:45:44 10° SSW 20:48:26 27° SE 20:51:09 10° E
STARLINK-1356 3.8 20:46:06 10° SSW 20:48:49 27° SE 20:51:31 10° E
STARLINK-1345 3.8 20:46:24 10° SSW 20:49:07 27° SE 20:51:50 10° E
STARLINK-1355 3.8 20:46:45 10° SSW 20:49:28 27° SE 20:52:12 10° E
STARLINK-1206 3.6 20:45:33 10° WNW 20:49:41 71° SSW 20:53:07 14° ESE
STARLINK-1321 3.7 20:47:06 10° SSW 20:49:48 28° SE 20:52:32 10° E
STARLINK-1358 3.7 20:47:28 10° SSW 20:50:11 28° SE 20:52:55 10° E
STARLINK-1332 3.7 20:47:45 10° SSW 20:50:29 28° SE 20:53:13 10° E
STARLINK-1348 3.7 20:48:05 10° SSW 20:50:49 28° SE 20:53:33 10° E
STARLINK-1330 3.7 20:48:25 10° SSW 20:51:09 28° SE 20:53:53 10° E
STARLINK-1363 3.7 20:48:44 10° SSW 20:51:28 28° SE 20:54:13 10° E
STARLINK-1337 3.7 20:49:06 10° SSW 20:51:51 29° SE 20:54:36 10° E
STARLINK-1216 4.0 20:47:47 10° WNW 20:51:55 66° N 20:56:03 10° E
STARLINK-1338 4.3 20:48:39 10° SSW 20:52:06 29° SE 20:55:34 10° E
STARLINK-1342 3.7 20:49:25 10° SSW 20:52:10 29° SE 20:54:55 10° E
STARLINK-1364 3.7 20:49:45 10° SSW 20:52:30 29° SE 20:55:16 10° E
STARLINK-1376 3.7 20:50:05 10° SSW 20:52:50 29° SE 20:55:36 10° E
STARLINK-1360 3.7 20:50:25 10° SSW 20:53:10 29° SE 20:55:57 10° E
STARLINK-1361 3.7 20:50:46 10° SSW 20:53:31 29° SE 20:56:18 10° E
STARLINK-1367 3.7 20:51:01 10° SSW 20:53:48 29° SE 20:56:36 10° E
STARLINK-1366 3.6 20:51:23 10° SSW 20:54:10 30° SE 20:56:57 10° E
STARLINK-1205 3.6 20:50:31 10° WNW 20:54:39 67° SSW 20:57:54 16° SE
Resurs 01 Rocket 4.2 20:52:21 10° WSW 20:54:48 14° W 20:57:14 10° NW
STARLINK-1237 3.9 20:52:46 10° WNW 20:56:55 68° N 21:01:03 10° E
Cosmos 1536 Rocket 3.8 20:55:59 16° SSE 20:59:13 53° E 21:03:30 10° NNE
Cosmos 2084 4.4 20:56:25 15° S 20:59:17 29° ESE 21:03:09 10° ENE
STARLINK-1218 3.7 20:55:31 10° WNW 20:59:38 63° SSW 21:02:42 17° SE
STARLINK-1371 4.2 20:56:56 10° SSW 21:00:30 32° SE 21:04:03 10° E
STARLINK-52 2.8 20:57:23 10° WSW 21:00:34 75° SSE 21:03:48 10° ENE
STARLINK-1202 3.9 20:57:45 10° WNW 21:01:55 69° NNE 21:06:03 10° E
SPOT 5 3.6 20:57:53 12° S 21:02:46 56° W 21:08:04 10° NNW
Cosmos 1544 Rocket 3.9 20:58:29 10° NNW 21:02:48 61° W 21:06:25 14° S
ATLAS CENTAUR R/B 2.9 21:01:28 10° NNW 21:02:56 19° NNE 21:04:44 10° ENE
CENTAUR R/B 3.7 20:56:20 10° NW 21:04:01 50° WSW 21:11:10 15° S
STARLINK-1254 3.7 21:00:31 10° WNW 21:04:37 60° SSW 21:07:29 18° SE
STARLINK-1341 4.1 21:01:07 10° SSW 21:04:46 34° SE 21:08:25 10° ENE
Thor Agena Rocket 4.4 21:01:06 10° NNE 21:05:54 34° E 21:09:05 18° SSE
Terra 2.1 21:02:43 15° S 21:06:38 65° WSW 21:11:23 10° NNW
STARLINK-1203 3.9 21:02:30 10° WNW 21:06:40 71° NNE 21:10:50 10° E
BREEZE-M DEB 3.1 21:03:56 10° WSW 21:06:45 64° SSE 21:14:48 10° E
USA 215 4.0 21:01:02 10° E 21:07:23 55° N 21:13:44 10° WNW
Cosmos 2266 Rocket 4.4 21:03:14 17° SSE 21:07:39 45° E 21:13:21 10° NNE
STARLINK-1374 4.0 21:05:19 10° SSW 21:08:59 36° SE 21:12:41 10° ENE
STARLINK-1231 3.8 21:05:30 10° WNW 21:09:34 56° SSW 21:12:15 20° SE
Cosmos 2292 Rocket 4.0 21:08:26 20° SE 21:09:37 26° E 21:12:11 10° NE
STARLINK-1246 3.8 21:07:44 10° WNW 21:11:54 73° NNE 21:16:02 10° E
Cosmos 1726 2.2 21:08:46 10° N 21:12:30 67° ENE 21:14:42 23° SSE
ATLAS 3B R/B 2.8 21:05:55 10° NW 21:12:40 73° SW 21:18:07 18° SSE
STARLINK-1339 4.0 21:09:33 10° SW 21:13:17 38° SE 21:17:01 10° ENE
Cosmos 1655 Rocket 4.1 21:09:10 15° S 21:14:23 68° E 21:20:38 10° NNE
STARLINK-1232 3.8 21:10:31 10° WNW 21:14:34 53° SSW 21:17:04 21° SE
STARLINK-1224 3.8 21:12:42 10° WNW 21:16:52 76° NNE 21:21:01 10° ESE
STARLINK-1377 3.9 21:13:48 10° SW 21:17:34 41° SE 21:21:21 10° ENE
STARLINK-1208 3.9 21:15:30 10° WNW 21:19:31 50° SSW 21:21:50 23° SE
Cosmos 1470 3.7 21:16:34 10° NNW 21:20:13 40° W 21:23:07 15° SSW
Cosmos 1674 3.8 21:18:37 21° SE 21:20:16 30° E 21:23:37 10° NNE
STARLINK-1444 2.7 21:18:30 10° W 21:20:35 54° NNW 21:22:44 10° ENE
STARLINK-1452 2.7 21:19:10 10° W 21:21:13 53° NNW 21:23:21 10° ENE
STARLINK-1353 3.8 21:18:03 10° SW 21:21:51 43° SSE 21:25:40 10° ENE
STARLINK-1225 3.7 21:17:41 10° WNW 21:21:52 78° NNE 21:26:01 10° ESE
STARLINK-1392 2.7 21:20:05 10° W 21:22:06 52° NNW 21:24:10 10° ENE
STARLINK-1399 2.7 21:20:06 10° W 21:22:07 52° NNW 21:24:12 10° ENE
Meteor 2-10 4.0 21:17:04 10° NNW 21:22:08 80° W 21:25:45 19° S
STARLINK-1393 2.7 21:20:09 10° W 21:22:10 52° NNW 21:24:14 10° ENE
STARLINK-1394 2.7 21:20:10 10° W 21:22:11 52° NNW 21:24:15 10° ENE
STARLINK-1397 2.7 21:20:12 10° W 21:22:14 52° NNW 21:24:18 10° ENE
STARLINK-1395 2.6 21:20:14 10° W 21:22:14 51° NNW 21:24:16 10° ENE
STARLINK-1396 2.7 21:20:13 10° W 21:22:14 52° NNW 21:24:18 10° ENE
STARLINK-1414 2.7 21:20:14 10° W 21:22:14 51° NNW 21:24:18 10° ENE
STARLINK-1408 2.7 21:20:17 10° W 21:22:17 51° NNW 21:24:21 10° ENE
STARLINK-1404 2.7 21:20:18 10° W 21:22:19 52° NNW 21:24:23 10° ENE
STARLINK-1416 2.7 21:20:19 10° W 21:22:19 51° NNW 21:24:23 10° ENE
STARLINK-1415 2.7 21:20:19 10° W 21:22:21 52° NNW 21:24:25 10° ENE
STARLINK-1450 2.7 21:20:20 10° W 21:22:21 52° NNW 21:24:26 10° ENE
STARLINK-1406 2.7 21:20:23 10° W 21:22:23 51° NNW 21:24:26 10° ENE
STARLINK-1401 2.7 21:20:22 10° W 21:22:23 52° NNW 21:24:28 10° ENE
STARLINK-1417 2.7 21:20:25 10° W 21:22:27 52° NNW 21:24:32 10° ENE
STARLINK-1402 2.7 21:20:26 10° W 21:22:28 52° NNW 21:24:33 10° ENE
STARLINK-1413 2.7 21:20:26 10° W 21:22:28 52° NNW 21:24:33 10° ENE
STARLINK-1419 2.7 21:20:27 10° W 21:22:28 52° NNW 21:24:32 10° ENE
STARLINK-1422 2.7 21:20:32 10° W 21:22:33 52° NNW 21:24:38 10° ENE
STARLINK-1453 2.7 21:20:32 10° W 21:22:34 52° NNW 21:24:40 10° ENE
STARLINK-1398 2.7 21:20:32 10° W 21:22:35 52° NNW 21:24:41 10° ENE
STARLINK-1420 2.7 21:20:35 10° W 21:22:37 52° NNW 21:24:42 10° ENE
STARLINK-1440 2.7 21:20:35 10° W 21:22:37 52° NNW 21:24:42 10° ENE
STARLINK-1436 (VISORSAT) 2.7 21:20:35 10° W 21:22:38 52° NNW 21:24:44 10° ENE
STARLINK-1460 2.7 21:20:38 10° W 21:22:39 52° NNW 21:24:45 10° ENE
STARLINK-1410 2.7 21:20:42 10° W 21:22:44 52° NNW 21:24:49 10° ENE
STARLINK-1423 2.7 21:20:43 10° W 21:22:45 51° NNW 21:24:49 10° ENE
STARLINK-1421 2.7 21:20:43 10° W 21:22:45 51° NNW 21:24:49 10° ENE
STARLINK-1400 2.7 21:20:43 10° W 21:22:45 52° NNW 21:24:50 10° ENE
STARLINK-1454 2.7 21:20:43 10° W 21:22:45 52° NNW 21:24:50 10° ENE
STARLINK-1458 2.7 21:20:46 10° W 21:22:47 51° NNW 21:24:52 10° ENE
STARLINK-1445 2.7 21:20:48 10° W 21:22:50 52° NNW 21:24:55 10° ENE
STARLINK-1446 2.7 21:20:50 10° W 21:22:53 52° NNW 21:24:58 10° ENE
STARLINK-1407 2.7 21:20:50 10° W 21:22:53 52° NNW 21:24:58 10° ENE
STARLINK-1405 2.7 21:20:54 10° W 21:22:54 51° NNW 21:24:56 10° ENE
STARLINK-1370 2.7 21:20:53 10° W 21:22:55 52° NNW 21:25:00 10° ENE
STARLINK-1456 2.7 21:20:54 10° W 21:22:55 51° NNW 21:25:00 10° ENE
STARLINK-1457 2.7 21:20:54 10° W 21:22:56 51° NNW 21:25:00 10° ENE
STARLINK-1451 2.7 21:20:54 10° W 21:22:56 51° NNW 21:25:00 10° ENE
STARLINK-1409 2.7 21:20:55 10° W 21:22:56 51° NNW 21:25:01 10° ENE
STARLINK-1439 2.7 21:20:57 10° W 21:22:57 51° NNW 21:24:59 10° ENE
STARLINK-1437 2.7 21:20:55 10° W 21:22:57 51° NNW 21:25:02 10° ENE
STARLINK-1447 2.7 21:20:55 10° W 21:22:57 51° NNW 21:25:02 10° ENE
STARLINK-1455 2.7 21:20:55 10° W 21:22:57 52° NNW 21:25:03 10° ENE
STARLINK-1441 2.7 21:20:57 10° W 21:22:59 51° NNW 21:25:05 10° ENE
STARLINK-1443 2.7 21:20:59 10° W 21:23:02 52° NNW 21:25:08 10° ENE
STARLINK-1351 2.7 21:21:02 10° W 21:23:03 51° NNW 21:25:09 10° ENE
STARLINK-1418 2.7 21:21:02 10° W 21:23:03 51° NNW 21:25:09 10° ENE
STARLINK-1442 2.7 21:21:03 10° W 21:23:05 51° NNW 21:25:10 10° ENE
STARLINK-1403 2.7 21:21:02 10° W 21:23:05 52° NNW 21:25:10 10° ENE
STARLINK-1434 2.7 21:21:02 10° W 21:23:05 52° NNW 21:25:10 10° ENE
STARLINK-1448 2.7 21:21:04 10° W 21:23:06 51° NNW 21:25:12 10° ENE
STARLINK-1433 2.7 21:21:05 10° W 21:23:07 51° NNW 21:25:13 10° ENE
STARLINK-1449 2.7 21:21:06 10° W 21:23:09 51° NNW 21:25:15 10° ENE
STARLINK-1438 2.7 21:21:10 10° W 21:23:12 51° NNW 21:25:16 10° ENE
STARLINK-1411 2.7 21:21:16 10° W 21:23:18 51° NNW 21:25:24 10° ENE
STARLINK-1412 2.7 21:21:16 10° W 21:23:19 51° NNW 21:25:24 10° ENE
BREEZE-M DEB (TANK) 3.3 21:11:23 10° WSW 21:24:06 76° S 21:27:38 10° E
STARLINK-1271 4.0 21:20:29 10° WNW 21:24:28 47° SSW 21:26:37 24° SSE
SeaSat 1 3.8 21:22:09 10° NE 21:26:02 23° ESE 21:27:48 19° SE
STARLINK-1375 3.7 21:22:20 10° SW 21:26:10 46° SSE 21:30:01 10° ENE
STARLINK-1230 3.7 21:22:39 10° WNW 21:26:50 81° NNE 21:30:59 10° ESE
BREEZE-M DEB (TANK) 3.4 21:20:46 10° SW 21:26:54 27° SSE 21:29:47 10° E
FALCON 9 DEB 3.0 21:23:43 10° WSW 21:27:09 79° SSE 21:30:36 10° ENE
BREEZE-M DEB (TANK) 2.8 21:24:58 10° W 21:28:41 65° SSW 21:32:41 10° ESE
STARLINK-60 3.6 21:25:35 10° W 21:28:43 58° N 21:31:53 10° ENE
Cosmos 1606 Rocket 4.1 21:24:34 10° N 21:28:47 46° ENE 21:31:19 22° SE
STARLINK-1154 4.1 21:25:27 10° WNW 21:29:24 44° SSW 21:31:23 25° SSE
Cosmos 1340 Rocket 2.9 21:25:39 10° NNW 21:29:44 79° W 21:32:10 24° S
Cosmos 1174 3.6 21:26:49 10° SW 21:30:07 80° NW 21:34:08 10° NE
STARLINK-1350 3.7 21:26:36 10° SW 21:30:28 49° SSE 21:34:21 10° ENE
COSMOS 2455 2.8 21:25:45 10° SSW 21:31:47 83° SE 21:37:51 10° NE
STARLINK-1243 3.6 21:27:40 10° WNW 21:31:50 84° NNE 21:35:51 11° ESE
Cosmos 1025 Rocket 3.4 21:30:39 14° SSW 21:34:16 61° WNW 21:38:35 10° N
STARLINK-1197 4.2 21:30:27 10° WNW 21:34:22 41° SW 21:36:10 26° SSE
COSMOS 2487 3.4 21:31:18 10° NW 21:34:32 37° WSW 21:36:14 22° SSW
STARLINK-1352 3.6 21:30:55 10° SW 21:34:47 51° SSE 21:38:42 10° ENE
STARLINK-1236 3.6 21:32:38 10° WNW 21:36:48 87° NNE 21:40:37 12° ESE
NOSS 3-4 (A) 3.6 21:32:23 10° SW 21:38:22 76° NW 21:44:52 10° NE
NOSS 3-4 (C) 3.6 21:32:28 10° SW 21:38:27 77° NW 21:44:58 10° NE
STARLINK-1368 3.6 21:35:18 10° SW 21:39:13 55° SSE 21:43:10 10° ENE
STARLINK-1198 4.3 21:35:27 10° WNW 21:39:19 38° SW 21:40:57 27° SSE
ALOS 2 3.6 21:37:12 18° SE 21:39:56 38° ENE 21:44:01 10° N
Aureole 3 2.5 21:38:08 10° N 21:41:11 85° E 21:42:17 36° SSE
STARLINK-1369 3.5 21:39:40 10° SW 21:43:37 58° SSE 21:47:35 10° ENE
STARLINK-1199 4.3 21:40:27 10° WNW 21:44:16 36° SW 21:45:43 27° S
Cosmos 1953 2.9 21:41:10 10° NNW 21:45:02 49° W 21:47:21 22° SSW
ATLAS 5 CENTAUR R/B 1.2 21:40:43 10° SW 21:45:08 62° SE 21:47:19 10° NE
RESURS DK-1 2.3 21:42:39 22° SSW 21:45:14 65° ESE 21:49:22 10° NE
EXPRESS MD2 4.2 21:41:33 10° W 21:45:40 84° S 21:54:27 10° E
ERBS 3.3 21:42:51 10° NW 21:46:04 44° NNE 21:49:17 10° E
Cosmos 2297 Rocket 2.9 21:41:08 10° NNW 21:46:39 50° NE 21:51:12 15° SE
STARLINK-1269 3.5 21:42:36 10° WNW 21:46:46 87° SSW 21:50:10 15° ESE
Cosmos 1271 Rocket 4.3 21:43:17 10° SW 21:46:52 33° WNW 21:50:32 10° N
Cosmos 1943 Rocket 4.3 21:42:38 10° W 21:47:23 28° NW 21:52:11 10° NNE
Meteor 2-19 Rocket 4.4 21:42:44 18° S 21:47:27 88° ESE 21:53:36 10° N
Cosmos 1626 3.7 21:46:19 19° ESE 21:47:31 23° E 21:50:30 10° NE
CZ-4C R/B 3.7 21:46:26 15° ESE 21:47:37 16° ESE 21:50:55 10° ENE
STARLINK-1372 3.5 21:44:01 10° SW 21:47:58 61° SSE 21:51:57 10° ENE
STARLINK-1210 4.4 21:45:28 10° WNW 21:49:13 34° SW 21:50:30 27° S
Cosmos 2219 3.5 21:44:54 10° NNW 21:50:32 61° NE 21:54:40 18° SE
Lacrosse 4 Rocket 3.2 21:46:52 10° NNW 21:50:41 29° NE 21:54:24 10° ESE
STARLINK-1200 3.5 21:47:34 10° WNW 21:51:45 83° SSW 21:54:57 16° ESE
Cosmos 2228 3.0 21:47:36 10° N 21:51:52 76° E 21:54:03 28° SSE
STARLINK-1378 3.4 21:48:26 10° SW 21:52:24 64° SSE 21:56:24 10° ENE
Spot 4 3.8 21:50:03 25° SSE 21:52:58 87° WSW 21:57:50 10° NNW
Cosmos 921 Rocket 3.6 21:52:46 27° SSE 21:54:34 40° ESE 21:58:42 10° NNE
SL-4 R/B 2.5 21:51:09 10° W 21:56:00 79° N 22:00:51 10° E
STARLINK-1192 3.5 21:52:34 10° WNW 21:56:44 80° SSW 21:59:45 18° ESE
STARLINK-1379 3.4 21:52:52 10° WSW 21:56:52 68° SSE 22:00:53 10° ENE
Cosmos 1707 4.2 21:55:20 11° SW 21:58:43 32° WNW 22:02:16 10° N
STARLINK-1329 3.4 21:56:36 10° WSW 22:00:36 71° SSE 22:04:38 10° ENE
STARLINK-29 3.5 21:58:13 10° W 22:01:25 59° N 22:04:36 10° ENE
STARLINK-1244 3.5 21:57:32 10° WNW 22:01:41 76° SSW 22:04:30 20° ESE
EO 1 Del DPAF 3.2 21:59:10 10° NNE 22:02:58 84° WNW 22:04:56 27° SSW
SL-4 R/B 1.1 22:03:43 44° ENE 22:03:43 44° ENE 22:05:47 10° N
STARLINK-1362 3.4 22:01:04 10° WSW 22:05:06 74° SSE 22:09:09 10° ENE
Timation 2 Rocket 4.1 21:59:55 10° NW 22:06:07 61° WSW 22:09:47 24° S
STARLINK-1138 3.5 22:02:30 10° WNW 22:06:39 72° SSW 22:09:16 21° SE
ATLAS 2AS CENTAUR R/B 3.6 21:58:54 10° WSW 22:06:50 62° NW 22:14:38 10° NE
STARLINK-1373 3.4 22:05:36 10° WSW 22:09:38 77° SSE 22:13:41 10° ENE
STARLINK-1143 3.5 22:07:30 10° WNW 22:11:39 68° SSW 22:14:04 23° SE
Okean 1-7 Rocket 4.0 22:09:54 28° SSE 22:12:00 50° E 22:16:25 10° NNE
Cosmos 1726 Rocket 3.5 22:07:44 10° NNW 22:12:05 83° W 22:14:12 30° S
Helios 1A 3.8 22:10:56 22° SE 22:13:16 44° ENE 22:17:14 10° N
STARLINK-1390 3.4 22:10:07 10° WSW 22:14:10 81° SSE 22:18:13 10° ENE
ATLAS CENTAUR R/B 3.0 22:10:48 10° WSW 22:14:43 34° NW 22:18:25 10° NNE
Cosmos 1697 Rocket 4.3 22:12:54 16° SE 22:15:05 20° E 22:19:05 10° NE
BREEZE-M R/B 4.0 22:06:57 10° SW 22:15:41 49° SSE 22:19:56 10° E
Cosmos 1892 Rocket 3.6 22:14:31 30° S 22:16:33 66° E 22:20:54 10° NNE
STARLINK-1241 3.6 22:12:30 10° WNW 22:16:37 65° SSW 22:18:51 25° SE
STARLINK-1320 2.9 22:13:30 10° WSW 22:16:37 82° NNW 22:19:46 10° ENE
STARLINK-1322 2.9 22:13:51 10° WSW 22:16:58 82° NNW 22:20:07 10° ENE
STARLINK-1324 2.9 22:14:10 10° WSW 22:17:18 82° NNW 22:20:26 10° ENE
STARLINK-1294 2.9 22:14:29 10° WSW 22:17:36 81° NNW 22:20:45 10° ENE
Cosmos 2098 Rocket 4.4 22:12:13 20° S 22:17:46 85° W 22:25:08 10° N
STARLINK-1261 2.9 22:14:51 10° WSW 22:17:59 81° NNW 22:21:07 10° ENE
STARLINK-1325 2.9 22:15:12 10° WSW 22:18:19 81° NNW 22:21:27 10° ENE
STARLINK-1333 2.9 22:15:35 10° WSW 22:18:43 80° NNW 22:21:50 10° ENE
STARLINK-1334 2.9 22:15:52 10° WSW 22:19:00 80° NNW 22:22:07 10° ENE
STARLINK-1326 2.9 22:16:11 10° WSW 22:19:19 80° NNW 22:22:26 10° ENE
STARLINK-1323 2.9 22:16:34 10° WSW 22:19:41 80° NNW 22:22:49 10° ENE
SJ 16-02 2.0 22:15:32 10° NNW 22:19:51 49° ENE 22:22:33 21° SE
STARLINK-1349 2.9 22:16:52 10° WSW 22:19:59 79° NNW 22:23:07 10° ENE
STARLINK-1365 3.5 22:15:54 10° WSW 22:20:00 86° SSE 22:24:07 10° ENE
STARLINK-1336 2.9 22:17:12 10° WSW 22:20:19 79° NNW 22:23:27 10° ENE
STARLINK-1331 2.9 22:17:34 10° WSW 22:20:42 79° NNW 22:23:50 10° ENE
STARLINK-1344 2.9 22:17:53 10° WSW 22:21:00 79° NNW 22:24:08 10° ENE
STARLINK-1343 2.9 22:18:16 10° WSW 22:21:23 78° NNW 22:24:31 10° ENE
STARLINK-1239 3.6 22:17:29 10° WNW 22:21:35 61° SSW 22:23:39 27° SE
STARLINK-1346 2.9 22:18:32 10° WSW 22:21:41 78° NNW 22:24:50 10° ENE
STARLINK-1328 2.9 22:18:58 10° WSW 22:22:06 78° NNW 22:25:13 10° ENE
STARLINK-1354 2.9 22:19:16 10° WSW 22:22:23 78° NNW 22:25:31 10° ENE
Cosmos 2315 Rocket 4.2 22:16:26 10° NNW 22:22:33 62° W 22:26:32 23° SSW
STARLINK-1347 2.9 22:19:33 10° WSW 22:22:40 77° NNW 22:25:48 10° ENE
STARLINK-1357 2.9 22:19:58 10° WSW 22:23:06 77° NNW 22:26:14 10° ENE
STARLINK-1335 2.9 22:20:16 10° WSW 22:23:23 77° NNW 22:26:32 10° ENE
STARLINK-1327 2.9 22:20:37 10° WSW 22:23:44 77° NNW 22:26:52 10° ENE
Cosmos 1437 3.3 22:23:34 36° ESE 22:24:00 38° E 22:26:50 10° NNE
STARLINK-1340 3.0 22:20:55 10° WSW 22:24:03 76° NNW 22:27:11 10° ENE
STARLINK-1356 3.0 22:21:18 10° WSW 22:24:26 76° NNW 22:27:33 10° ENE
Cosmos 2227 Rocket 2.3 22:18:50 10° NNW 22:24:33 76° ENE 22:28:23 21° SE
STARLINK-1345 3.0 22:21:37 10° WSW 22:24:44 76° NNW 22:27:52 10° ENE
STARLINK-1355 3.0 22:21:58 10° WSW 22:25:05 76° NNW 22:28:14 10° ENE
STARLINK-1321 3.0 22:22:19 10° WSW 22:25:26 75° NNW 22:28:34 10° ENE
Nadezhda 2 Rocket 4.5 22:21:48 24° S 22:25:36 78° E 22:31:49 10° NNE
STARLINK-1358 3.0 22:22:42 10° WSW 22:25:49 75° NNW 22:28:57 10° ENE
STARLINK-1332 3.0 22:22:59 10° WSW 22:26:06 75° NNW 22:29:14 10° ENE
STARLINK-1348 3.0 22:23:19 10° WSW 22:26:27 75° NNW 22:29:34 10° ENE
STARLINK-1240 3.7 22:22:26 10° WNW 22:26:31 58° SSW 22:28:23 29° SE
STARLINK-1330 3.0 22:23:39 10° WSW 22:26:46 74° NNW 22:29:54 10° ENE
STARLINK-1363 3.0 22:23:59 10° WSW 22:27:06 74° NNW 22:30:14 10° ENE
STARLINK-1337 3.0 22:24:22 10° WSW 22:27:29 74° NNW 22:30:37 10° ENE
STARLINK-1342 3.0 22:24:41 10° WSW 22:27:48 74° NNW 22:30:56 10° ENE
STARLINK-1364 3.0 22:25:01 10° WSW 22:28:08 74° NNW 22:31:16 10° ENE
STARLINK-1376 3.0 22:25:21 10° WSW 22:28:28 73° NNW 22:31:36 10° ENE
STARLINK-1360 3.0 22:25:42 10° WSW 22:28:49 73° NNW 22:31:57 10° ENE
STARLINK-1361 3.0 22:26:03 10° WSW 22:29:10 73° NNW 22:32:17 10° ENE
STARLINK-1367 3.0 22:26:18 10° WSW 22:29:27 73° NNW 22:32:36 10° ENE
STARLINK-1366 3.0 22:26:42 10° WSW 22:29:49 72° NNW 22:32:57 10° ENE
STARLINK-1338 3.5 22:26:48 10° WSW 22:30:47 87° NNW 22:34:48 10° ENE
STARLINK-1216 3.7 22:27:27 10° WNW 22:31:30 54° SSW 22:33:11 31° SSE
Cosmos 1908 4.5 22:31:35 10° NNW 22:34:59 31° W 22:36:36 22° SW
Cosmos 1356 Rocket 3.6 22:31:32 10° N 22:35:46 65° ENE 22:37:47 29° SSE
STARLINK-1237 3.8 22:32:26 10° WNW 22:36:28 51° SSW 22:37:58 33° SSE
Nadezhda 1 Rocket 4.4 22:30:29 10° N 22:36:39 59° ENE 22:40:51 21° SSE
STARLINK-52 3.8 22:33:40 10° W 22:36:50 53° N 22:40:00 10° ENE
SL-14 R/B 3.1 22:36:22 36° S 22:37:50 80° E 22:41:43 10° NNE
Cosmos 2084 4.3 22:34:14 10° WSW 22:38:36 54° NW 22:43:01 10° NE
STARLINK-1371 3.5 22:35:13 10° WSW 22:39:11 82° NNW 22:43:11 10° ENE
STARLINK-1202 3.8 22:37:26 10° WNW 22:41:26 48° SSW 22:42:45 34° SSE
STARLINK-1341 3.6 22:39:33 10° WSW 22:43:33 79° NNW 22:47:33 10° ENE
STARLINK-1203 3.9 22:42:14 10° WNW 22:46:13 45° SSW 22:47:23 35° S
Cosmos 1300 2.8 22:44:01 10° NNW 22:47:50 67° W 22:49:12 36° SSW
STARLINK-1374 3.6 22:43:50 10° WSW 22:47:50 77° NNW 22:51:51 10° ENE
Meteor 2-5 Rocket 4.0 22:46:11 22° SSW 22:49:52 65° WNW 22:55:34 10° N
USA 215 3.2 22:43:36 10° ESE 22:50:11 90° SW 22:56:47 10° WNW
Meteor 2-10 Rocket 4.2 22:45:49 10° N 22:50:47 45° ENE 22:54:08 19° SE
STARLINK-1246 4.0 22:47:26 10° WNW 22:51:21 42° SW 22:52:20 35° S
STARLINK-1339 3.7 22:48:09 10° W 22:52:09 75° NNW 22:56:09 10° ENE
STARLINK-1444 3.2 22:52:36 10° WNW 22:54:41 42° N 22:56:39 11° E
STARLINK-1452 3.2 22:53:14 10° WNW 22:55:19 42° N 22:57:03 14° ENE
Cosmos 1674 4.5 22:53:25 14° WSW 22:55:49 25° WNW 22:59:02 10° NNW
STARLINK-1392 3.2 22:54:07 10° WNW 22:56:08 41° N 22:57:12 22° ENE
STARLINK-1399 3.2 22:54:08 10° WNW 22:56:10 42° N 22:57:22 20° ENE
STARLINK-1393 3.2 22:54:11 10° WNW 22:56:12 42° N 22:57:20 21° ENE
STARLINK-1394 3.2 22:54:12 10° WNW 22:56:13 42° N 22:57:21 21° ENE
STARLINK-1395 3.2 22:54:16 10° WNW 22:56:16 41° N 22:57:08 25° ENE
STARLINK-1397 3.2 22:54:15 10° WNW 22:56:17 42° N 22:57:29 20° ENE
STARLINK-1396 3.2 22:54:15 10° WNW 22:56:17 42° N 22:57:27 20° ENE
STARLINK-1414 3.2 22:54:16 10° WNW 22:56:17 41° N 22:57:21 22° ENE
STARLINK-1224 4.1 22:52:25 10° WNW 22:56:18 39° SW 22:57:04 35° S
STARLINK-1408 3.2 22:54:19 10° WNW 22:56:20 42° N 22:57:23 22° ENE
STARLINK-1404 3.2 22:54:20 10° WNW 22:56:22 42° N 22:57:34 20° ENE
STARLINK-1416 3.2 22:54:21 10° WNW 22:56:23 42° N 22:57:28 21° ENE
STARLINK-1415 3.2 22:54:21 10° WNW 22:56:24 42° N 22:57:42 18° ENE
STARLINK-1450 3.2 22:54:23 10° WNW 22:56:25 42° N 22:57:45 18° ENE
STARLINK-1406 3.2 22:54:25 10° WNW 22:56:26 41° N 22:57:26 23° ENE
STARLINK-1401 3.2 22:54:25 10° WNW 22:56:27 42° N 22:57:45 18° ENE
YAOGAN 11 4.0 22:54:28 31° SSE 22:56:29 89° SW 23:00:49 10° NNW
STARLINK-1377 3.7 22:52:29 10° W 22:56:30 73° NNW 23:00:30 10° ENE
STARLINK-1417 3.2 22:54:28 10° WNW 22:56:31 42° N 22:57:49 18° ENE
STARLINK-1402 3.2 22:54:29 10° WNW 22:56:32 42° N 22:57:49 18° ENE
STARLINK-1413 3.2 22:54:29 10° WNW 22:56:32 42° N 22:57:50 18° ENE
STARLINK-1419 3.2 22:54:30 10° WNW 22:56:32 42° N 22:57:44 20° ENE
STARLINK-1422 3.2 22:54:35 10° WNW 22:56:37 42° N 22:57:54 19° ENE
STARLINK-1453 3.2 22:54:36 10° WNW 22:56:39 42° N 22:58:03 17° ENE
STARLINK-1398 3.2 22:54:36 10° WNW 22:56:40 42° N 22:58:14 15° ENE
STARLINK-1420 3.2 22:54:39 10° WNW 22:56:41 42° N 22:58:02 18° ENE
STARLINK-1436 (VISORSAT) 3.2 22:54:40 10° WNW 22:56:44 42° N 22:58:18 15° ENE
STARLINK-1440 3.2 22:54:40 10° WNW 22:56:44 42° N 22:58:06 17° ENE
STARLINK-1460 3.2 22:54:42 10° WNW 22:56:44 42° N 22:58:05 18° ENE
STARLINK-1410 3.2 22:54:46 10° WNW 22:56:49 42° N 22:58:07 18° ENE
STARLINK-1423 3.2 22:54:47 10° WNW 22:56:49 42° N 22:58:00 20° ENE
STARLINK-1421 3.2 22:54:47 10° WNW 22:56:49 42° N 22:58:00 20° ENE
STARLINK-1400 3.2 22:54:46 10° WNW 22:56:50 42° N 22:58:08 18° ENE
STARLINK-1454 3.2 22:54:47 10° WNW 22:56:51 42° N 22:58:10 18° ENE
STARLINK-1458 3.2 22:54:50 10° WNW 22:56:53 42° N 22:58:07 19° ENE
STARLINK-1445 3.2 22:54:52 10° WNW 22:56:55 42° N 22:58:19 17° ENE
STARLINK-1407 3.2 22:54:54 10° WNW 22:56:57 42° N 22:58:19 18° ENE
STARLINK-1446 3.2 22:54:54 10° WNW 22:56:57 42° N 22:58:21 17° ENE
STARLINK-1405 3.2 22:54:57 10° WNW 22:56:58 41° N 22:57:51 25° ENE
STARLINK-1370 3.2 22:54:57 10° WNW 22:57:00 42° N 22:58:21 18° ENE
STARLINK-1456 3.2 22:54:58 10° WNW 22:57:01 42° N 22:58:16 19° ENE
STARLINK-1457 3.2 22:54:58 10° WNW 22:57:01 42° N 22:58:16 19° ENE
STARLINK-1451 3.2 22:54:58 10° WNW 22:57:01 42° N 22:58:16 19° ENE
STARLINK-1439 3.2 22:55:01 10° WNW 22:57:01 42° N 22:57:54 25° ENE
STARLINK-1409 3.2 22:54:59 10° WNW 22:57:02 42° N 22:58:17 19° ENE
STARLINK-1447 3.2 22:55:00 10° WNW 22:57:02 42° N 22:58:25 18° ENE
STARLINK-1437 3.2 22:55:01 10° WNW 22:57:03 42° N 22:58:21 18° ENE
STARLINK-1455 3.2 22:55:00 10° WNW 22:57:03 42° N 22:58:25 18° ENE
STARLINK-1441 3.2 22:55:02 10° WNW 22:57:05 42° N 22:58:28 17° ENE
STARLINK-1443 3.2 22:55:04 10° WNW 22:57:08 42° N 22:58:36 16° ENE
STARLINK-1351 3.2 22:55:06 10° WNW 22:57:09 42° N 22:58:33 17° ENE
STARLINK-1418 3.2 22:55:06 10° WNW 22:57:09 42° N 22:58:32 18° ENE
STARLINK-1403 3.2 22:55:07 10° WNW 22:57:10 42° N 22:58:36 17° ENE
STARLINK-1434 3.2 22:55:07 10° WNW 22:57:10 42° N 22:58:38 16° ENE
STARLINK-1442 3.2 22:55:07 10° WNW 22:57:10 42° N 22:58:34 17° ENE
STARLINK-1448 3.2 22:55:09 10° WNW 22:57:12 42° N 22:58:35 17° ENE
STARLINK-1433 3.2 22:55:10 10° WNW 22:57:13 42° N 22:58:35 18° ENE
STARLINK-1449 3.2 22:55:12 10° WNW 22:57:15 42° N 22:58:40 17° ENE
STARLINK-1438 3.2 22:55:15 10° WNW 22:57:17 42° N 22:58:32 19° ENE
STARLINK-1411 3.2 22:55:22 10° WNW 22:57:25 42° N 22:58:44 18° ENE
STARLINK-1412 3.2 22:55:22 10° WNW 22:57:25 42° N 22:58:48 17° ENE
Cosmos 1626 Rocket 3.7 22:57:33 32° SSE 22:59:26 65° E 23:03:48 10° NNE
NOSS 7 (H) 4.4 22:59:52 45° SE 23:00:03 45° SE 23:02:54 10° NE
STARLINK-1353 3.8 22:56:49 10° W 23:00:49 71° NNW 23:04:50 10° ENE
STARLINK-1225 4.2 22:57:25 10° WNW 23:01:15 37° SW 23:01:52 35° SSW
ATLAS 3B R/B 4.4 22:58:02 10° WNW 23:02:21 18° WSW 23:05:21 14° SW
SeaSat 1 2.7 22:59:02 10° NNE 23:03:56 67° NW 23:07:35 18° SW
Cosmos 2292 4.2 23:01:01 10° NNW 23:04:09 70° W 23:04:47 49° SSW
FALCON 9 DEB 3.9 23:00:56 10° W 23:04:19 55° N 23:07:44 10° ENE
SL-08 ROCKET BODY 4.4 23:01:21 26° S 23:04:42 69° E 23:10:32 10° NNE
STARLINK-60 3.4 23:01:53 10° WNW 23:05:03 62° N 23:08:13 10° E
STARLINK-1375 3.8 23:01:10 10° W 23:05:11 69° NNW 23:09:12 10° ENE
STARLINK-1230 4.2 23:02:25 10° WNW 23:06:12 34° SW 23:06:38 33° SSW
FALCON 9 R/B 4.3 23:08:51 17° SSE 23:08:51 17° SSE 23:13:54 10° SE
Cosmos 2058 Rocket 4.0 23:03:48 10° NNW 23:07:54 37° W 23:09:53 24° SW
STARLINK-1350 3.8 23:05:31 10° W 23:09:31 68° N 23:13:31 10° ENE
Uosat 12 SS-18 rocket 4.0 23:05:45 10° NW 23:10:04 86° NE 23:13:05 20° SE
STARLINK-1243 4.3 23:07:27 10° W 23:11:10 32° SW 23:11:26 32° SSW
Helios 1B rocket 3.1 23:08:24 10° NNE 23:12:23 44° E 23:14:04 29° SSE
Cosmos 1980 Rocket 3.3 23:10:05 20° SSE 23:12:46 30° ESE 23:17:36 10° NE
STARLINK-1352 3.9 23:09:50 10° W 23:13:49 66° N 23:17:49 10° ENE
STARLINK-1236 4.5 23:12:27 10° W 23:16:06 30° SW 23:16:12 30° SW
ALOS 2 3.9 23:14:35 21° SW 23:16:22 27° W 23:20:09 10° NW
Cosmos 468 Rocket 3.9 23:14:13 28° S 23:16:54 74° ESE 23:22:02 10° NNE
STARLINK-1368 3.9 23:14:21 10° W 23:18:21 65° N 23:22:22 10° ENE
Cosmos 1745 Rocket 3.9 23:16:47 26° S 23:20:30 90° WNW 23:26:41 10° N
ERBS 2.8 23:19:14 10° WNW 23:22:16 38° SW 23:22:16 38° SW
Cosmos 1626 3.5 23:20:51 20° WSW 23:22:39 31° WNW 23:26:00 10° N
STARLINK-1369 4.0 23:18:46 10° W 23:22:46 64° N 23:26:47 10° ENE
Cosmos 2369 3.9 23:20:09 27° S 23:23:09 58° ESE 23:28:43 10° NE
Meteor 1-29 4.0 23:20:28 10° NNE 23:23:32 32° E 23:24:32 26° SE
Cosmos 1455 2.3 23:19:47 10° N 23:23:32 65° E 23:25:11 31° SSE
Cosmos 1937 Rocket 3.5 23:18:37 10° NNW 23:23:54 78° WSW 23:27:02 25° SSE
Cosmos 1812 Rocket 3.5 23:20:32 10° NNW 23:24:59 77° W 23:27:04 31° S
USA 229 DEB 4.5 23:18:34 10° NW 23:25:37 57° NE 23:33:02 10° ESE
USA 229 4.5 23:18:41 10° NW 23:25:43 57° NE 23:33:07 10° ESE
NOSS 3-1 (C) 4.5 23:19:24 10° NW 23:26:30 63° NE 23:34:49 10° ESE
Cosmos 2263 Rocket 3.4 23:21:18 10° NNW 23:26:36 40° NE 23:31:51 10° ESE
STARLINK-1372 4.0 23:23:06 10° W 23:27:05 63° N 23:31:06 10° ENE
STARLINK-43 3.3 23:26:08 35° SW 23:27:28 60° SSE 23:31:06 10° ENE
STARLINK-55 3.8 23:28:11 33° SE 23:28:11 33° SE 23:30:53 10° E
Alouette 2 Rocket 3.8 23:23:11 10° NNW 23:28:14 68° ENE 23:30:22 26° SSE
Lacrosse 4 Rocket 1.8 23:25:26 10° NW 23:29:35 47° WSW 23:31:03 32° S
Cosmos 2297 Rocket 3.1 23:25:30 10° NW 23:30:32 34° WSW 23:32:58 24° SSW
STARLINK-1378 4.0 23:27:38 10° W 23:31:38 62° N 23:35:38 10° ENE
Cosmos 1656 3.8 23:27:54 21° SW 23:31:47 73° WNW 23:37:23 10° NNE
Cosmos 1703 4.1 23:30:32 25° SE 23:32:17 41° E 23:35:59 10° NNE
Cosmos 1898 Rocket 3.9 23:27:27 10° NNW 23:32:36 50° WSW 23:35:13 27° SSW
STARLINK-1264 4.4 23:33:13 27° SE 23:33:17 27° SE 23:36:29 10° E
Cosmos 1825 Rocket 4.2 23:31:32 25° SSE 23:33:42 46° E 23:37:53 10° NNE
Cosmos 2219 4.4 23:29:40 10° NW 23:34:17 26° WSW 23:36:34 20° SW
CZ-4C R/B 2.1 23:31:35 23° SW 23:34:56 83° SE 23:41:07 10° NE
SL-4 R/B 2.3 23:31:02 10° WNW 23:35:55 87° SSW 23:40:42 10° ESE
STARLINK-1379 4.1 23:32:08 10° W 23:36:08 61° N 23:40:08 10° ENE
STARLINK-1267 4.3 23:36:26 28° SSE 23:36:37 28° SE 23:39:52 10° E
Cosmos 372 Rocket 4.2 23:31:29 10° NNW 23:36:38 67° ENE 23:40:53 15° SE
Cosmos 1602 Rocket 3.6 23:35:23 30° SSW 23:37:27 69° WNW 23:41:48 10° N
STARLINK-29 3.4 23:34:36 10° WNW 23:37:47 61° N 23:40:57 10° E
Cosmos 2360 4.4 23:35:46 26° S 23:38:56 59° ESE 23:44:33 10° NE
STARLINK-28 3.3 23:39:11 42° SSE 23:39:23 43° SSE 23:42:28 10° ENE
STARLINK-1329 4.1 23:35:54 10° W 23:39:55 61° N 23:43:56 10° ENE
PSLV R/B 3.5 23:37:14 10° NNE 23:41:43 88° ESE 23:43:52 29° SSW
STARLINK-1207 4.2 23:42:54 30° SSE 23:43:19 31° SE 23:46:40 10° E
STARLINK-1362 4.1 23:40:26 10° W 23:44:27 60° N 23:48:28 10° ENE
ATLAS CENTAUR R/B 3.0 23:42:32 10° W 23:43:35 19° WSW 23:43:35 19° WSW
Cosmos 2082 4.0 23:39:45 10° NW 23:45:11 49° WSW 23:48:10 25° S
STARLINK-1266 4.1 23:46:10 31° SSE 23:46:41 33° SE 23:50:05 10° E
Cosmos 2150 Rocket 4.3 23:43:34 10° NNW 23:48:43 64° ENE 23:53:27 12° SE
STARLINK-1373 4.1 23:45:00 10° W 23:49:00 60° N 23:53:01 10° ENE
STARLINK-33 3.1 23:49:37 43° S 23:49:55 45° SSE 23:52:55 10° ENE
STARLINK-1284 4.1 23:49:24 32° SSE 23:50:04 35° SE 23:53:30 10° ENE
Cosmos 2322 Rocket 4.3 23:48:30 10° SE 23:51:48 16° E 23:55:08 10° ENE
Cosmos 1814 Rocket 4.3 23:49:00 25° S 23:52:02 60° ESE 23:57:16 10° NNE
STARLINK-26 3.3 23:51:18 38° SSW 23:52:11 51° SSE 23:55:33 10° ENE
STARLINK-1320 3.7 23:49:34 10° WNW 23:52:38 51° N 23:55:43 10° E
STARLINK-1322 3.7 23:49:55 10° WNW 23:52:59 51° N 23:56:03 10° E
Cosmos 2181 Rocket 4.1 23:46:36 10° N 23:53:06 83° E 23:58:00 19° SSE
STARLINK-1324 3.7 23:50:15 10° WNW 23:53:19 51° N 23:56:22 10° E
STARLINK-1258 4.0 23:52:42 32° S 23:53:28 36° SE 23:56:56 10° ENE
STARLINK-1390 4.1 23:49:33 10° W 23:53:34 60° N 23:57:35 10° E
STARLINK-1294 3.7 23:50:33 10° WNW 23:53:37 51° N 23:56:42 10° E
STARLINK-1261 3.7 23:50:56 10° WNW 23:54:00 51° N 23:57:04 10° E
STARLINK-1325 3.7 23:51:17 10° WNW 23:54:21 51° N 23:57:25 10° E
ATLAS CENTAUR R/B 4.4 23:52:47 10° NW 23:54:42 13° NNW 23:56:34 10° NNE
STARLINK-1333 3.7 23:51:40 10° WNW 23:54:43 51° N 23:57:47 10° E
STARLINK-1334 3.7 23:51:56 10° WNW 23:55:00 51° N 23:58:04 10° E
STARLINK-1326 3.7 23:52:16 10° WNW 23:55:19 51° N 23:58:23 10° E
STARLINK-1323 3.7 23:52:39 10° WNW 23:55:43 51° N 23:58:47 10° E
STARLINK-1349 3.7 23:52:57 10° WNW 23:56:00 51° N 23:59:04 10° E
STARLINK-1336 3.7 23:53:16 10° WNW 23:56:20 51° N 23:59:24 10° E
STARLINK-1331 3.7 23:53:39 10° WNW 23:56:43 51° N 23:59:47 10° E
